Cloud_Cover
93 100 8 41 2 0 6 13 100 67 4 5 15 11 7 14 7 5 4 0 0 0 0 0 0 0 0 83 0 1 0 11 1 0 51 0 4 1 0 0 0 0 0
99 100 96 67 0 0 2 57 25 54 5 7 38 95 57 51 21 5 5 4 5 2 0 0 5 3 2 35 0 0 3 2 0 0 0 0 0 60 5 0 0 0 0
3 0 24 4 0 0 0 1 74 100 86 11 62 66 9 68 99 8 24 26 26 8 5 5 6 10 20 4 2 0 0 0 0 0 0 0 42 74 20 0 0 0 0
1 81 98 47 8 4 0 0 0 62 92 100 98 61 39 77 60 49 41 25 37 55 15 13 12 9 1 8 0 0 1 0 0 0 0 2 42 56 7 0 0 0 3
40 100 80 29 0 0 0 0 0 4 44 98 9 98 100 79 80 5 86 88 88 98 86 93 62 19 5 5 5 18 5 0 0 0 5 25 40 21 0 0 0 0 0
8 0 58 4 1 0 8 0 0 0 1 12 100 100 100 20 6 3 6 100 76 100 100 98 63 46 9 10 5 13 40 5 5 0 3 0 0 0 0 0 0 4 2
9 0 1 43 15 9 18 13 0 0 0 0 2 40 98 93 78 85 1 23 74 5 5 5 5 5 16 70 78 36 14 96 100 18 5 5 5 5 3 0 0 5 16
0 0 0 0 47 100 100 100 61 0 0 0 1 75 84 100 100 100 11 5 4 5 5 7 0 3 5 49 100 90 78 18 58 100 90 10 5 5 3 0 4 5 18
0 0 0 0 0 29 99 100 100 100 33 0 2 0 5 5 5 5 5 7 11 2 0 1 14 2 5 5 52 6 64 58 14 22 69 16 5 5 5 5 5 5 24
0 0 0 0 0 0 0 0 99 100 26 100 46 12 0 0 2 5 5 3 0 0 0 0 0 0 0 0 2 12 5 34 38 5 5 19 5 5 5 5 5 44 14
0 0 0 0 0 0 0 0 0 0 32 54 93 100 91 4 0 3 7 5 5 5 5 4 0 0 0 0 0 3 16 66 60 54 6 4 5 5 5 5 6 61 96
0 0 0 0 0 0 0 0 0 0 0 0 2 98 100 100 68 2 18 0 5 5 5 5 5 4 14 6 3 0 0 2 14 48 12 5 5 5 5 5 5 5 5
0 0 0 0 0 0 0 0 0 0 0 0 0 1 68 36 96 100 70 10 13 38 34 11 23 46 65 55 23 5 5 3 3 0 0 0 2 4 5 5 23 73 7
0 0 0 0 0 0 0 0 0 0 0 0 0 0 0 0 58 100 100 91 60 16 41 48 54 48 60 67 40 7 5 3 2 5 3 0 0 3 5 5 5 5 5
0 0 0 0 0 0 0 0 0 0 0 0 0 0 0 0 2 4 65 100 100 96 76 85 97 100 100 92 71 67 38 0 0 2 31 7 3 5 5 5 5 4 5
0 0 0 0 0 0 0 0 0 0 0 0 0 0 0 0 0 5 4 6 76 100 100 100 100 100 100 100 100 93 57 56 6 0 1 14 98 26 5 3 8 8 75
4 0 0 0 0 0 0 0 0 0 0 0 0 0 0 0 0 0 0 0 0 16 100 100 100 100 100 100 100 100 100 51 64 9 0 0 11 75 100 94 9 5 14
4 4 5 5 2 0 0 0 0 0 0 0 0 0 0 0 0 0 0 0 0 0 5 56 100 100 100 100 100 100 100 100 78 33 17 1 2 5 19 100 100 79 6
4 5 1 1 3 19 14 14 6 4 3 5 1 0 0 0 0 0 0 0 0 0 0 0 1 65 100 100 100 100 100 100 100 100 100 24 5 6 5 5 97 93 99
67 44 67 24 5 33 88 60 4 0 0 0 0 0 0 0 0 0 0 0 0 0 0 0 0 0 10 67 100 100 96 78 79 100 100 100 74 11 59 34 13 8 83
0 0 0 0 20 100 100 100 99 48 0 0 0 0 0 0 0 0 0 0 0 0 0 0 0 0 0 4 67 100 100 100 100 100 100 100 100 100 100 100 100 98 73
0 0 0 0 16 78 100 100 100 100 15 0 0 0 0 0 0 0 0 0 0 0 0 0 0 0 0 2 26 29 79 44 91 100 96 100 100 100 100 100 100 100 96
0 0 0 0 11 64 100 100 100 100 52 79 40 0 1 0 0 0 0 24 21 30 18 15 3 0 0 0 0 29 14 18 30 28 79 47 91 98 100 100 100 100 100
0 0 0 0 0 1 24 100 100 100 100 100 100 99 92 91 97 80 80 100 100 100 100 93 3 2 0 0 0 0 0 5 91 68 71 100 100 68 39 100 100 100 100
0 0 0 0 0 0 12 39 58 100 100 100 100 100 100 100 100 100 100 100 100 100 100 100 61 25 10 2 0 0 5 6 0 0 0 5 83 62 100 100 100 100 100
0 0 0 0 0 0 0 4 75 97 99 94 98 85 100 100 100 100 100 100 100 100 100 100 100 100 100 88 44 12 5 100 88 63 0 0 0 2 6 100 98 100 100